Regional Weather Roundup
Issued by NWS Jackson, KY

Home | Current Version | Previous Version | Text Only | Print | Product List | Glossary On
Versions: 1 2 3 4 5 6 7 8 9 10 11 12 13 14 15 16 17 18 19 20 21 22 23 24 25 26 27 28 29 30 31 32 33 34 35 36 37 38 39 40 41 42 43 44 45 46 47 48 49 50
000
ASUS43 KJKL 210211
RWRJKL

EAST KENTUCKY HOURLY WEATHER ROUNDUP
NATIONAL WEATHER SERVICE JACKSON KY
1000 PM EDT SUN APR 20 2014

NOTE: "FAIR" INDICATES FEW OR NO CLOUDS BELOW 12,000 FEET WITH
NO SIGNIFICANT WEATHER AND/OR OBSTRUCTIONS TO VISIBILITY.

* THESE REPORTS ARE NOT UNDER NWS QUALITY CONTROL AND MAY NOT
  REPORT WEATHER SUCH AS PRECIPITATION AND FOG.

KYZ079-080-083-085-087-088-110-112-115-119-120-210300
...EASTERN KENTUCKY...

CITY           SKY/WX    TMP DP  RH WIND       PRES   REMARKS
JACKSON        MOCLDY    70  24  17 CALM      30.14S
LONDON         PTCLDY    64  44  48 CALM      30.13R
SOMERSET*      CLOUDY    61  41  48 CALM      30.14R
MONTICELLO*    MOCLDY    53  46  77 CALM      30.14S
WILLIAMSBURG*  CLEAR     64  41  42 CALM      30.14
MIDDLESBORO*   CLEAR     59  44  56 CALM      30.15R
HARLAN APT*    CLEAR     63  32  31 CALM      30.15S
BLACK MTN*       N/A     55  23  28 S3          N/A
PIKEVILLE APT* CLEAR     64  28  25 NE6       30.14S
BIG SANDY*     PTCLDY    66  27  23 CALM      30.14S
MOREHEAD APT*  CLEAR     68  41  37 N6        30.16S
$$

KYZ035-036-041-042-044-050-067-078-099-210300
...CENTRAL KENTUCKY...

CITY           SKY/WX    TMP DP  RH WIND       PRES   REMARKS
MT STERLING*   CLOUDY    61  45  55 CALM      30.15S
FLEMING/MASON* CLEAR     66  41  39 CALM      30.15S
DANVILLE*      MOCLDY    59  43  55 CALM      30.14S
LEXINGTON      CLOUDY    64  41  42 E5        30.14R
FRANKFORT      MOCLDY    58  44  60 CALM      30.12R
$$

KYZ091>093-OHZ055-061-077-WVZ005-015-034-035-042-210300
...SOUTHERN OHIO/WEST VIRGINIA...

CITY           SKY/WX    TMP DP  RH WIND       PRES   REMARKS
COVINGTON      MOCLDY    65  36  34 CALM      30.12S
COLUMBUS       MOCLDY    65  39  38 CALM      30.14R
DAYTON         MOCLDY    64  36  35 CALM      30.14S
WILMINGTON     CLOUDY    60  40  47 CALM      30.14S
HUNTINGTON     PTCLDY    65  27  23 CALM      30.13R
CHARLESTON     CLEAR     63  31  30 CALM      30.14R
PINEVILLE*     CLEAR     56  37  49 MISG      30.24R
BECKLEY        CLEAR     58  26  29 SE10      30.22S
BLUEFIELD      CLEAR     59  22  24 SE8       30.25R
$$

VAZ002-007-008-TNZ017-027-036-066-071-210300
...SOUTHWEST VIRGINIA/EAST TENNESSEE...

CITY           SKY/WX    TMP DP  RH WIND       PRES   REMARKS
WISE*          CLEAR     63  19  19 S3        30.20S
ABINGDON*      CLEAR     59  29  31 E8        30.20R
BRISTOL        PTCLDY    62  29  28 CALM      30.17R
KNOXVILLE      PTCLDY    62  39  42 CALM      30.12S
OAK RIDGE      PTCLDY    61  45  55 CALM      30.14S
CROSSVILLE     MOCLDY    63  38  39 CALM      30.17R
NASHVILLE      PTCLDY    67  44  43 CALM      30.12R
$$

...KEY TO REMARKS...
VSB - VISIBILITY IN MILES
WCI - WIND CHILL INDEX
HX  - HEAT INDEX

$$



USA.gov is the U.S. government's official web portal to all federal, state and local government web resources and services.